User: anonymous   Login
Location: Unspecified
(41.5000°N, 0.0000°E)
Time: 19:39:06
(UTC+00:00)
Language:

Courier 1B Rocket - Orbit

View from above orbital plane
View from above orbital plane
View from above satellite
View from above satellite

Ground track
Ground track

The orbit data is extracted from the following two-line orbital elements,

1    59U 60013B   19288.76896241 +.00000080 +00000-0 -67879-5 0  9996
2    59 028.2497 040.2229 0189283 024.0820 336.8446 13.52971617913306
Epoch (UTC): 15 October 2019 18:27:18
Eccentricity: 0.0189283
inclination: 28.2497°
perigee height: 920 km
apogee height: 1202 km
right ascension of ascending node: 40.2229°
argument of perigee: 24.0820°
revolutions per day: 13.52971617
mean anomaly at epoch: 336.8446°
orbit number at epoch: 91330

The dashed part of the orbit path shows where the satellite is in the earth's shadow,  

DLR